Regional Weather Roundup
Issued by NWS

Home | Current Version | Previous Version | Text Only | Print | Product List | Glossary Off
Versions: 1 2 3 4 5 6 7 8 9 10 11 12 13 14 15 16 17 18 19 20 21 22 23 24 25 26 27 28

000
ASUS45 KCYS 300810
RWRWY

WYOMING REGIONAL WEATHER ROUNDUP
NATIONAL WEATHER SERVICE CHEYENNE WY
200 AM MDT MON MAY 30 2016

NOTE:  "FAIR" INDICATES FEW OR NO CLOUDS BELOW 12,000 FEET
WITH NO SIGNIFICANT WEATHER AND/OR OBSTRUCTIONS TO VISIBILITY.

WYZ001-300900-
YELLOWSTONE NATIONAL PARK

CITY           SKY/WX    TMP DP  RH WIND       PRES   REMARKS
LK YELLOWSTONE   N/A     39  37  92 CALM      30.18S
W YELLOWSTONE  NOT AVBL

$$
WYZ002>013-054>058-071-098>099-300900-
NORTHERN WYOMING

CITY           SKY/WX    TMP DP  RH WIND       PRES   REMARKS
JACKSON        CLOUDY    46  39  76 SW7       30.12S
CODY           FAIR      54  36  50 W3        29.97S
GREYBULL       FAIR      62  40  44 W7        29.90R
WORLAND        MOCLDY    58  41  53 S8        29.91S
SHERIDAN       FAIR      51  46  83 NE5       29.89F
BUFFALO        FAIR      63  35  35 CALM      29.94F
GILLETTE       FAIR      52  43  71 S13       29.92F
HULETT         FAIR      55  45  67 S6        29.95F
NEWCASTLE      FAIR      59  41  51 E13G20    29.97F

$$
WYZ014>020-022>026-101>103-300900-
CENTRAL WYOMING

CITY           SKY/WX    TMP DP  RH WIND       PRES   REMARKS
BIG PINEY      FAIR      45  41  86 S5        30.17F
PINEDALE       PTSUNNY   43  41  93 MISG      30.19S
DUBOIS         FAIR      46  32  57 NW10      30.10S
LANDER         FAIR      56  35  45 SW8       30.02F
RIVERTON       MOCLDY    53  39  59 S13       30.03F
CASPER         FAIR      49  39  68 SW8       30.02F
DOUGLAS          N/A    N/A N/A N/A MISG      30.02S

$$
WYZ021-027>030-104>119-300900-
SOUTHERN WYOMING

CITY           SKY/WX    TMP DP  RH WIND       PRES   REMARKS
EVANSTON       CLOUDY    44  37  76 NW18G29   30.24S
KEMMERER       LGT RAIN  43  41  93 SW18G24   30.20F
FORT BRIDGER   CLOUDY    48  45  87 W17G23    30.25R
ROCK SPRINGS   FAIR      45  37  73 W7        30.19R
DIXON          FAIR      42  38  86 E3        30.16F
RAWLINS        FAIR      42  32  67 CALM      30.13F
SARATOGA       FAIR      43  34  70 SE12      30.16S
LARAMIE        FAIR      40  34  79 SW13      30.16S WCI  32
CHEYENNE       FAIR      47  40  76 W9        30.11F
TORRINGTON     FAIR      51  45  79 SE7       30.00F
PINE BLUFFS    FAIR      46  45  93 S5        30.09S

$$




USA.gov is the U.S. government's official web portal to all federal, state and local government web resources and services.